Plainview, TX

12:16 AM CDT on September 25, 2016 (GMT -0500)
Hale County

Weather History for KPVW - February, 2013

Change the Weather History Date:

Tuesday, February 26, 2013

  Actual Average Record
Temperature  
Mean Temperature 26 °F -  
Max Temperature 41 °F 61 °F 85 °F (1917)
Min Temperature 12 °F 31 °F -2 °F (1960)
Degree Days  
Heating Degree Days 38    
Moisture  
Dew Point 24 °F    
Average Humidity 82    
Maximum Humidity 93    
Minimum Humidity 70    
Precipitation  
Precipitation 0.00 in - - ()
Sea Level Pressure  
Sea Level Pressure 29.82 in    
Wind  
Wind Speed 9 mph (NW)    
Max Wind Speed 17 mph    
Max Gust Speed -    
Visibility 10 miles    
Events      
Averages and records for this station are not official NWS values.
T = Trace of Precipitation, MM = Missing Value Source: NWS Daily Summary

Daily Weather History Graph

Daily Weather History Graph

Search for Another Location

Airport or City:

Trip Planner

Search our weather history database for the weather conditions in past years. The results will help you decide how hot, cold, wet, or windy it might be!

Date:

Astronomy

Feb. 26, 2013 Rise Set
Actual Time 7:18 AM CST 6:40 PM CST
Civil Twilight 6:53 AM CST 7:06 PM CST
Nautical Twilight 6:24 AM CST 7:35 PM CST
Astronomical Twilight 5:55 AM CST 8:04 PM CST
Moon 7:53 PM CST (2/26) 7:27 AM CST (2/26)
Length of Visible Light 12h 12m
Length of Day
11h 21m
Full, 99% of the Moon is Illuminated
Feb 26
Full
Mar 4
Last Quarter
Mar 11
New
Mar 19
First Quarter
Mar 27
Full

Hourly Weather History & Observations

Time (CST) Temp. Windchill Dew Point Humidity Pressure Visibility Wind Dir Wind Speed Gust Speed Precip Events Conditions
12:15 AM 30.2 °F 18.9 °F 23.0 °F 75% 29.87 in - NNW 16.1 mph - N/A   Clear
12:35 AM 30.2 °F 18.5 °F 23.0 °F 75% 29.86 in - North 17.3 mph - N/A   Clear
12:55 AM 30.2 °F 19.8 °F 23.0 °F 75% 29.86 in - NNW 13.8 mph - N/A   Clear
1:15 AM 28.4 °F 18.5 °F 21.2 °F 74% 29.87 in - NW 11.5 mph - N/A   Clear
1:35 AM 26.6 °F 15.7 °F 21.2 °F 80% 29.85 in - North 12.7 mph - N/A   Clear
1:55 AM 28.4 °F 18.5 °F 21.2 °F 74% 29.86 in - NW 11.5 mph - N/A   Clear
2:15 AM 23.0 °F 12.4 °F 17.6 °F 80% 29.86 in - NW 10.4 mph - N/A   Clear
2:35 AM 23.0 °F 12.4 °F 19.4 °F 86% 29.85 in - NNW 10.4 mph - N/A   Unknown
2:55 AM 23.0 °F 12.4 °F 19.4 °F 86% 29.84 in - North 10.4 mph - N/A   Clear
3:15 AM 26.6 °F 17.5 °F 19.4 °F 74% 29.83 in - North 9.2 mph - N/A   Clear
3:35 AM 21.2 °F 10.9 °F 15.8 °F 80% 29.84 in - WNW 9.2 mph - N/A   Clear
3:55 AM 17.6 °F 8.2 °F 14.0 °F 86% 29.84 in - WNW 6.9 mph - N/A   Unknown
4:15 AM 17.6 °F 6.4 °F 14.0 °F 86% 29.84 in - WNW 9.2 mph - N/A   Unknown
4:35 AM 17.6 °F 9.3 °F 14.0 °F 86% 29.84 in - NW 5.8 mph - N/A   Unknown
4:55 AM 17.6 °F 9.3 °F 14.0 °F 86% 29.83 in - NW 5.8 mph - N/A   Unknown
5:15 AM 17.6 °F 6.4 °F 14.0 °F 86% 29.84 in - NW 9.2 mph - N/A   Unknown
5:35 AM 15.8 °F 7.2 °F 12.2 °F 86% 29.84 in - NW 5.8 mph - N/A   Unknown
5:55 AM 15.8 °F 7.2 °F 12.2 °F 86% 29.86 in - West 5.8 mph - N/A   Unknown
6:15 AM 14.0 °F 3.9 °F 10.4 °F 86% 29.86 in - WNW 6.9 mph - N/A   Unknown
6:35 AM 12.2 °F 0.7 °F 10.4 °F 92% 29.85 in - WNW 8.1 mph - N/A   Unknown
6:55 AM 15.8 °F 8.6 °F 12.2 °F 86% 29.86 in - NW 4.6 mph - N/A   Unknown
7:15 AM 15.8 °F 7.2 °F 12.2 °F 86% 29.85 in - NW 5.8 mph - N/A   Unknown
7:35 AM 15.8 °F 8.6 °F 12.2 °F 86% 29.84 in - NW 4.6 mph - N/A   Unknown
7:55 AM 15.8 °F 5.1 °F 12.2 °F 86% 29.84 in - NW 8.1 mph - N/A   Unknown
8:15 AM 15.8 °F 6.1 °F 12.2 °F 86% 29.85 in - NW 6.9 mph - N/A   Unknown
8:35 AM 17.6 °F 8.2 °F 12.2 °F 79% 29.86 in - WNW 6.9 mph - N/A   Unknown
9:15 AM 21.2 °F 13.6 °F 17.6 °F 86% 29.85 in - NW 5.8 mph - N/A   Unknown
9:35 AM 21.2 °F 14.9 °F 17.6 °F 86% 29.86 in - WNW 4.6 mph - N/A   Unknown
9:55 AM 23.0 °F 18.4 °F 19.4 °F 86% 29.86 in - WNW 3.5 mph - N/A   Unknown
10:15 AM 23.0 °F 18.4 °F 19.4 °F 86% 29.86 in - WNW 3.5 mph - N/A   Unknown
10:35 AM 26.6 °F 21.2 °F 21.2 °F 80% 29.86 in - West 4.6 mph - N/A   Clear
10:55 AM 28.4 °F 23.3 °F 23.0 °F 80% 29.85 in 10.0 mi West 4.6 mph - N/A   Clear
11:15 AM 30.2 °F 25.4 °F 26.6 °F 86% 29.84 in 10.0 mi West 4.6 mph - N/A   Clear
11:35 AM 30.2 °F 25.4 °F 26.6 °F 86% 29.84 in 10.0 mi WSW 4.6 mph - N/A   Clear
11:55 AM 30.2 °F 26.7 °F 24.8 °F 80% 29.84 in 10.0 mi West 3.5 mph - N/A   Clear
12:15 PM 32.0 °F 28.7 °F 26.6 °F 80% 29.84 in 10.0 mi WSW 3.5 mph - N/A   Clear
12:35 PM 32.0 °F 28.7 °F 24.8 °F 75% 29.84 in 10.0 mi WSW 3.5 mph - N/A   Clear
12:55 PM 32.0 °F - 26.6 °F 80% 29.83 in 10.0 mi Calm Calm - N/A   Clear
1:15 PM 33.8 °F - 28.4 °F 81% 29.82 in 10.0 mi Calm Calm - N/A   Clear
1:35 PM 33.8 °F 30.8 °F 26.6 °F 75% 29.81 in 10.0 mi South 3.5 mph - N/A   Clear
1:55 PM 33.8 °F 29.6 °F 26.6 °F 75% 29.80 in 10.0 mi SSE 4.6 mph - N/A   Clear
2:15 PM 33.8 °F 28.6 °F 28.4 °F 81% 29.78 in 10.0 mi SSE 5.8 mph - N/A   Clear
2:35 PM 35.6 °F 31.7 °F 28.4 °F 75% 29.78 in 10.0 mi SE 4.6 mph - N/A   Clear
2:55 PM 35.6 °F 31.7 °F 30.2 °F 81% 29.78 in 10.0 mi East 4.6 mph - N/A   Clear
3:15 PM 35.6 °F 30.7 °F 30.2 °F 81% 29.77 in 10.0 mi East 5.8 mph - N/A   Clear
3:35 PM 35.6 °F 31.7 °F 30.2 °F 81% 29.76 in 10.0 mi ESE 4.6 mph - N/A   Clear
3:55 PM 35.6 °F 31.7 °F 30.2 °F 81% 29.75 in 10.0 mi ESE 4.6 mph - N/A   Clear
4:15 PM 39.2 °F 35.0 °F 32.0 °F 75% 29.75 in 10.0 mi East 5.8 mph - N/A   Clear
4:35 PM 39.2 °F 37.0 °F 32.0 °F 75% 29.75 in 10.0 mi ESE 3.5 mph - N/A   Clear
4:55 PM 39.2 °F 35.0 °F 32.0 °F 75% 29.74 in 10.0 mi ESE 5.8 mph - N/A   Clear
5:15 PM 41.0 °F 35.8 °F 32.0 °F 70% 29.74 in 10.0 mi East 8.1 mph - N/A   Clear
5:35 PM 41.0 °F 36.4 °F 33.8 °F 76% 29.74 in 10.0 mi East 6.9 mph - N/A   Clear
5:55 PM 39.2 °F 33.6 °F 33.8 °F 81% 29.74 in 10.0 mi ENE 8.1 mph - N/A   Clear
6:15 PM 39.2 °F 34.2 °F 33.8 °F 81% 29.75 in 10.0 mi ENE 6.9 mph - N/A   Clear
6:35 PM 35.6 °F 30.7 °F 32.0 °F 87% 29.76 in 10.0 mi ENE 5.8 mph - N/A   Clear
6:55 PM 35.6 °F 32.8 °F 32.0 °F 87% 29.76 in 10.0 mi ENE 3.5 mph - N/A   Scattered Clouds
7:15 PM 35.6 °F - 32.0 °F 87% 29.77 in 10.0 mi Calm Calm - N/A   Mostly Cloudy
7:35 PM 35.6 °F 31.7 °F 32.0 °F 87% 29.78 in 10.0 mi SE 4.6 mph - N/A   Mostly Cloudy
7:55 PM 35.6 °F 29.2 °F 30.2 °F 81% 29.79 in 10.0 mi SE 8.1 mph - N/A   Scattered Clouds
8:15 PM 35.6 °F 30.7 °F 30.2 °F 81% 29.80 in 10.0 mi SE 5.8 mph - N/A   Mostly Cloudy
8:35 PM 33.8 °F 27.0 °F 30.2 °F 87% 29.79 in 10.0 mi SSE 8.1 mph - N/A   Overcast
8:55 PM 33.8 °F 29.6 °F 32.0 °F 93% 29.81 in 10.0 mi South 4.6 mph - N/A   Overcast
9:15 PM 35.6 °F 29.9 °F 32.0 °F 87% 29.82 in 10.0 mi SSW 6.9 mph - N/A   Overcast
9:35 PM 35.6 °F 28.0 °F 32.0 °F 87% 29.82 in 10.0 mi West 10.4 mph - N/A   Overcast
9:55 PM 35.6 °F 29.2 °F 32.0 °F 87% 29.83 in 10.0 mi WSW 8.1 mph - N/A   Scattered Clouds
10:15 PM 33.8 °F 27.0 °F 30.2 °F 87% 29.84 in 10.0 mi West 8.1 mph - N/A   Clear
10:35 PM 35.6 °F 30.7 °F 30.2 °F 81% 29.86 in 10.0 mi North 5.8 mph - N/A   Clear
10:55 PM 33.8 °F 24.3 °F 30.2 °F 87% 29.88 in 10.0 mi NE 13.8 mph - N/A   Clear
11:15 PM 33.8 °F 24.8 °F 28.4 °F 81% 29.90 in 10.0 mi NNE 12.7 mph - N/A   Clear
11:35 PM 33.8 °F 26.4 °F 28.4 °F 81% 29.91 in 10.0 mi NNE 9.2 mph - N/A   Clear
11:55 PM 32.0 °F 22.5 °F 28.4 °F 87% 29.93 in 10.0 mi North 12.7 mph - N/A   Clear